Lid_Strength_Index
-2 -2 -2 -1 -2 -2 -1 -1 -1 -1 -1 0 1 2 2 2 3 7 8 3 0 -2 -0 4 4 5 7 7 6 5 8 10 10 9 8 7 7 6 5 6 5 4 4 3 2
-2 -2 -2 -2 -2 -2 -2 -2 -1 -1 -1 -0 0 1 2 2 7 9 5 0 -1 -1 4 5 6 5 8 9 7 7 10 9 7 7 7 8 7 6 6 6 5 5 3 2 2
-2 -2 -2 -2 -2 -2 -2 -2 -2 -2 -1 -1 0 1 1 3 11 11 2 2 1 -0 2 3 3 6 8 8 9 9 11 9 7 7 7 7 7 6 6 7 5 5 4 3 3
-2 -2 -2 -1 -2 -2 -2 -2 -2 -2 -1 -1 -0 1 2 6 14 4 2 2 1 1 3 5 4 6 9 10 8 11 9 8 9 7 7 8 7 7 6 5 4 3 3 3 4
-2 -2 -2 -1 -1 -1 -2 -2 -2 -2 -2 -1 -0 1 4 10 11 3 1 2 2 3 6 6 6 6 8 9 9 10 10 9 8 8 8 7 7 7 7 5 4 4 3 4 3
-2 -2 -2 -2 -1 -1 -1 -2 -2 -2 -2 -1 -1 0 6 12 4 3 3 2 2 3 5 5 6 5 6 7 9 8 8 8 8 8 8 8 7 7 6 5 4 4 4 3 3
-2 -2 -2 -2 -2 -1 -2 -1 -1 -2 -2 -1 -1 2 6 8 3 3 3 3 3 2 5 4 3 5 5 7 5 6 9 9 8 8 9 8 10 9 5 5 5 4 4 4 3
-1 -2 -2 -2 -2 -2 -2 -2 -1 -2 -2 -1 -1 2 6 3 2 4 3 4 2 1 2 2 3 5 5 5 7 8 8 11 9 8 8 8 13 9 7 6 5 4 4 4 3
-0 -1 -2 -2 -1 -1 -2 -2 -1 -2 -2 -1 1 4 6 2 4 3 2 5 3 1 2 3 4 6 7 9 10 10 12 11 10 8 9 9 11 9 7 7 6 5 4 4 4
-0 -1 -1 -2 -2 -2 -2 -1 -1 -1 -0 2 2 6 4 6 3 2 2 2 3 3 4 5 6 9 9 11 14 13 12 11 11 10 9 9 9 7 7 7 7 6 5 5 5
-0 -1 -0 -1 -1 -2 -1 0 4 5 4 7 6 6 5 3 2 3 2 3 3 5 9 7 10 12 11 10 12 11 11 12 11 10 11 10 10 9 8 8 8 7 6 6 5
-1 -1 -0 -1 -1 -1 -1 3 3 3 8 4 5 5 4 2 6 4 2 6 7 11 8 9 12 10 9 9 11 13 14 14 12 11 11 11 12 10 9 9 8 8 7 7 6
-1 -1 -1 -1 -1 -0 1 2 -1 1 8 7 6 6 5 4 6 6 3 5 8 9 10 12 11 9 9 10 12 12 13 14 15 12 12 13 14 14 12 11 10 9 8 8 7
-1 -2 -1 -1 2 1 3 -0 -1 0 12 11 8 6 5 4 7 3 3 5 8 11 9 11 10 9 10 11 11 15 11 12 13 14 18 13 18 14 13 12 11 10 10 9 9
-2 -1 -1 -1 2 4 2 -1 -1 2 19 8 8 3 4 6 6 6 3 5 9 9 9 12 10 10 11 11 10 14 11 12 13 14 16 16 18 16 14 14 12 11 11 10 10
-2 -2 -1 0 0 1 -0 1 2 13 19 12 8 9 9 7 7 6 6 5 5 9 8 11 8 8 10 9 8 9 10 12 13 14 19 16 17 16 16 14 14 13 12 11 10
-2 -2 -1 -0 3 -1 0 4 13 17 10 13 12 9 9 10 10 8 9 9 11 14 14 11 10 9 8 10 8 9 12 16 17 17 19 17 17 16 13 13 13 12 11 10 10
-1 -1 -1 -0 -1 -1 2 9 17 13 13 9 10 10 12 10 10 10 11 12 9 10 12 14 15 10 8 9 11 11 12 15 19 18 17 17 19 16 12 11 11 11 11 12 10
-1 -0 1 -0 -1 0 6 14 14 12 9 11 10 13 13 10 11 11 11 11 9 9 12 13 13 10 9 8 8 11 13 10 15 19 17 15 14 13 12 11 11 12 12 12 11
1 2 2 -1 -1 2 9 13 11 9 8 8 13 11 14 13 12 12 12 9 10 8 9 11 14 11 9 8 8 10 8 14 13 18 18 16 16 15 13 12 10 11 11 10 10
2 6 2 -1 0 7 12 12 10 8 7 9 11 12 11 12 11 12 12 9 8 9 7 9 11 13 10 11 12 11 12 12 11 13 16 18 16 11 11 10 10 10 11 10 9
4 9 1 0 9 9 11 10 8 8 8 8 8 9 11 11 12 12 11 9 6 7 11 8 11 14 13 10 8 9 10 11 14 16 14 15 16 12 11 10 10 9 9 9 9
8 7 1 2 12 11 9 9 9 9 9 9 9 8 8 11 13 11 10 7 7 8 9 9 13 16 15 11 10 11 10 10 10 11 14 16 15 11 11 10 9 9 8 8 7
7 10 7 5 6 9 10 11 11 8 8 8 8 8 9 10 9 11 11 8 7 7 7 7 11 13 15 12 10 13 11 10 11 15 14 13 13 11 10 10 9 9 9 8 8
7 9 8 11 10 9 9 9 11 11 8 7 10 9 10 12 11 11 9 9 8 7 8 9 14 12 11 10 11 11 11 11 12 12 14 12 11 11 9 8 8 8 8 8 7
8 8 8 8 8 9 9 11 10 10 9 10 10 9 9 11 10 11 9 9 10 9 9 9 14 12 14 11 11 13 11 11 11 11 11 11 11 8 7 7 8 7 6 7 7
6 5 5 8 9 10 10 10 9 9 9 7 8 9 10 9 7 7 7 7 8 9 11 11 12 14 16 12 12 16 13 12 11 9 10 13 10 7 8 7 7 6 6 6 6